Weather in Shevchenkove

Ukraine / Sumi District     51°06′08″N   33°14′44″E
temp.,
°C
wind,
m/s
gust,
m/s
humid.,
%
clouds,
%
prec.,
mm/h
press.,
hPa
HPBL,
m
27 october, wed
wed2700:00+4ssw5136418 0.0 1027284
03:00+3ssw512666 0.0 1026265
06:00+2ssw513765 0.0 1025282
09:00+3ssw613820 0.0 1024390
12:00+8sw710710 0.0 1024645
15:00+10wsw575818 0.0 1022849
18:00+8wsw376377 0.0 1023247
21:00+6w34757 0.0 102359
28 october, thu
thu2800:00+5w358530 0.0 102481
03:00+5wsw3789100 0.0 1023126
06:00+5sw41089100 0.0 1022228
09:00+7sw6138298 0.1 1021397
12:00+10w51177100 0.0 1021482
15:00+9wnw51182100 0.1 1020500
18:00+9wnw4988100 0.0 1021352
21:00+9nw4992100 0.0 1023311
29 october, fri
fri2900:00+7nw37965 0.0 1024144
03:00+6n35965 0.0 1026102
06:00+4nne33935 0.0 102744
09:00+5ne24855 0.0 1029139
12:00+10ene23620 0.0 1029484
15:00+11e22560 0.0 1029721
18:00+8e22725 0.0 102912
21:00+7ese33800 0.0 103041
30 october, sat
sat3000:00+6se35870 0.0 103174
03:00+5sse36920 0.0 103190
06:00+4sse35925 0.0 103286
09:00+5sse37895 0.0 1032174
12:00+10sse46630 0.0 1032451
15:00+12s45560 0.0 1031721
18:00+9sse33720 0.0 103142
21:00+7sse35770 0.0 103181
31 october, sun
sun3100:00+6sse35770 0.0 103276
03:00+5sse35780 0.0 103266
05:00+4sse35800 0.0 103172
08:00+5se37770 0.0 1031150
11:00+10sse57620 0.0 1030475
14:00+12sse45560 0.0 1027749
17:00+8se36690 0.0 1027100
20:00+7se410710 0.0 1027177